This is the latest recevied weather packets stored in our database for station/object HB9MIR-13. If no packets are shown the sender has not sent any weather packets the latest 1 day(s).
| Time | Temp. | Humidity | Pressure | Rain* | Wind** | Luminosity | Snow |
|---|---|---|---|---|---|---|---|
| 1778087431 | 11.67° C | 89% | 1008 hPa | 0 mm | - | 53 W/m² | - |
| 1778084667 | 11.67° C | 85% | 1007.7 hPa | 0 mm | - | 112 W/m² | - |
| 1778083980 | 11.67° C | 87% | 1007.7 hPa | 0 mm | - | 103 W/m² | - |
| 1778083293 | 11.67° C | 87% | 1007.8 hPa | 0 mm | - | 103 W/m² | - |
| 1778081918 | 11.67° C | 86% | 1007.9 hPa | 0 mm | - | 105 W/m² | - |
| 1778080541 | 11.67° C | 90% | 1007.8 hPa | 0 mm | - | 105 W/m² | - |
| 1778079118 | 11.11° C | 90% | 1007.8 hPa | 0.25 mm | - | 124 W/m² | - |
| 1778078418 | 11.11° C | 89% | 1007.8 hPa | 0.25 mm | - | 101 W/m² | - |
| 1778077730 | 11.11° C | 90% | 1007.7 hPa | 0.25 mm | - | 90 W/m² | - |
| 1778074916 | 11.67° C | 90% | 1007.6 hPa | 2.03 mm | - | 128 W/m² | - |
| 1778072166 | 11.67° C | 88% | 1007.4 hPa | 2.54 mm | - | 93 W/m² | - |
| 1778070802 | 12.22° C | 90% | 1006.9 hPa | 1.52 mm | - | 105 W/m² | - |
| 1778069415 | 12.78° C | 92% | 1006.5 hPa | 0.51 mm | - | 127 W/m² | - |
| 1778068727 | 12.78° C | 90% | 1006.3 hPa | 0 mm | - | 65 W/m² | - |
| 1778068040 | 13.33° C | 87% | 1006 hPa | 0 mm | - | 100 W/m² | - |
| 1778065915 | 13.89° C | 81% | 1005.8 hPa | 0.25 mm | - | 244 W/m² | - |
| 1778065228 | 14.44° C | 81% | 1006.1 hPa | 0.51 mm | - | 437 W/m² | - |
| 1778063805 | 13.33° C | 84% | 1006 hPa | 0.51 mm | - | 215 W/m² | - |
| 1778062417 | 13.33° C | 88% | 1006 hPa | 0.51 mm | - | 277 W/m² | - |
| 1778060354 | 13.33° C | 82% | 1005.7 hPa | 0 mm | - | 94 W/m² | - |
| 1778059668 | 13.33° C | 82% | 1005.7 hPa | 0 mm | - | 144 W/m² | - |
| 1778058291 | 13.33° C | 83% | 1005.5 hPa | 0 mm | - | 177 W/m² | - |
| 1778056231 | 12.78° C | 81% | 1005.5 hPa | 0 mm | - | 161 W/m² | - |
| 1778054795 | 13.33° C | 82% | 1005.5 hPa | 0 mm | - | 192 W/m² | - |
| 1778054108 | 12.22° C | 86% | 1005.4 hPa | 0 mm | - | 236 W/m² | - |
* Rain latest hour (hover to see other rain measurements)
** Current wind speed in m/s (hover to see current wind gust speed)